FW2297 Weather Reports


Display with metric or nautical units.
time (UTC)temp
F
wind
direction
speed
MPH
gust
MPH
rain 1hr
in
rain 24hr
in
rain mn
in
humidity
%
barometer
mb
20260902200104 67 0 0.0 5.0 0.00 0.02 0.02 75 1021.0
20260902195552 67 0 0.0 0.0 0.00 0.02 0.02 76 1021.0
20260902195152 67 0 0.0 1.0 0.00 0.02 0.02 76 1021.2
20260902195058 67 0 0.0 1.0 0.00 0.02 0.02 76 1021.2
20260902194556 67 0 0.0 1.0 0.00 0.02 0.02 75 1021.1
20260902194051 67 0 0.0 0.0 0.00 0.02 0.02 76 1020.8
20260902193552 67 0 0.0 2.0 0.00 0.02 0.02 76 1021.0
20260902193100 67 0 0.0 4.0 0.00 0.02 0.02 76 1021.1
20260902192551 67 0 0.0 4.0 0.00 0.02 0.02 77 1021.3
20260902192052 67 0 0.0 0.0 0.00 0.02 0.02 76 1021.5
20260902191603 67 0 0.0 0.0 0.00 0.02 0.02 77 1021.4
20260902191053 67 0 0.0 3.0 0.00 0.02 0.02 78 1021.5
20260902190552 67 0 0.0 3.0 0.00 0.02 0.02 77 1021.5
20260902190057 67 0 0.0 4.0 0.00 0.02 0.02 77 1021.7
20260902185552 67 0 0.0 4.0 0.00 0.02 0.02 77 1021.7
20260902185051 67 0 0.0 0.0 0.00 0.02 0.02 77 1021.6
20260902184557 67 0 0.0 0.0 0.00 0.02 0.02 77 1021.7
20260902184451 67 0 0.0 0.0 0.00 0.02 0.02 76 1021.7
20260902182551 67 0 0.0 3.0 0.00 0.02 0.02 77 1021.6
20260902182054 67 0 0.0 3.0 0.00 0.02 0.02 77 1021.7
20260902181606 67 0 0.0 3.0 0.00 0.02 0.02 76 1021.8
20260902181131 67 0 0.0 1.0 0.00 0.02 0.02 76 1021.6
20260902180552 67 0 0.0 1.0 0.00 0.02 0.02 77 1021.6
20260902180118 67 0 0.0 3.0 0.00 0.02 0.02 77 1021.5
20260902175644 66 0 0.0 3.0 0.00 0.02 0.02 79 1021.4
20260902175534 66 0 0.0 3.0 0.00 0.02 0.02 78 1021.6
20260902173442 67 0 0.0 3.0 0.00 0.02 0.02 79 1021.8
20260902171051 67 0 0.0 4.0 0.00 0.02 0.02 79 1022.0
20260902170551 67 0 0.0 0.0 0.00 0.02 0.02 78 1022.0
20260902170111 66 0 0.0 7.0 0.00 0.02 0.02 80 1022.1
20260902165551 66 0 0.0 7.0 0.00 0.02 0.02 79 1022.2
20260902165051 66 0 0.0 6.0 0.00 0.02 0.02 80 1022.0
20260902164558 66 0 0.0 4.0 0.00 0.02 0.02 81 1022.0
20260902164052 66 0 0.0 0.0 0.00 0.02 0.02 82 1022.2
20260902163818 66 0 0.0 0.0 0.00 0.02 0.02 83 1022.3
20260902163244 66 0 0.0 5.0 0.00 0.02 0.02 83 1022.2
20260902162551 65 0 0.0 5.0 0.00 0.02 0.02 83 1022.3
20260902162054 65 0 0.0 4.0 0.00 0.02 0.02 84 1022.2
20260902162016 65 0 0.0 4.0 0.00 0.02 0.02 83 1022.3
20260902155551 65 0 0.0 3.0 0.00 0.02 0.02 86 1022.5
20260902155052 65 0 0.0 1.0 0.00 0.02 0.02 88 1022.3
20260902154601 65 0 0.0 1.0 0.00 0.02 0.02 89 1022.6
20260902154051 65 0 0.0 0.0 0.00 0.02 0.02 89 1022.6
20260902153552 65 0 0.0 0.0 0.00 0.02 0.02 90 1022.6
20260902153057 65 0 0.0 0.0 0.00 0.02 0.02 91 1022.7
20260902152551 64 0 0.0 1.0 0.00 0.02 0.02 92 1022.7
20260902152051 64 0 0.0 2.0 0.00 0.02 0.02 92 1022.8
20260902151559 64 0 0.0 2.0 0.00 0.02 0.02 93 1022.6
20260902151050 64 132 0.0 2.0 0.00 0.02 0.02 94 1022.7
20260902150550 63 0 0.0 1.0 0.00 0.02 0.02 94 1022.6
20260902145551 63 0 0.0 0.0 0.00 0.02 0.02 94 1022.8
20260902145051 63 0 0.0 0.0 0.00 0.02 0.02 94 1022.6
20260902144610 63 0 0.0 0.0 0.00 0.02 0.02 95 1022.7
20260902144052 62 0 0.0 0.0 0.00 0.02 0.02 95 1022.8
20260902143551 62 0 0.0 0.0 0.00 0.02 0.02 95 1022.7
20260902143059 62 0 0.0 0.0 0.00 0.02 0.02 95 1022.8
20260902142552 62 0 0.0 0.0 0.00 0.02 0.02 95 1022.6
20260902142054 62 0 0.0 0.0 0.00 0.02 0.02 95 1022.6
20260902141559 62 0 0.0 1.0 0.00 0.02 0.02 95 1022.4
20260902141051 62 0 0.0 1.0 0.00 0.02 0.02 95 1022.6
20260902140551 62 0 0.0 1.0 0.00 0.02 0.02 95 1022.3
20260902140359 62 0 0.0 1.0 0.00 0.02 0.02 96 1022.2
20260902134051 62 166 0.0 0.0 0.00 0.02 0.02 96 1021.8
20260902133552 61 0 0.0 3.0 0.00 0.02 0.02 96 1022.0
20260902133058 61 0 0.0 3.0 0.00 0.02 0.02 96 1022.0
20260902132933 61 0 0.0 3.0 0.00 0.02 0.02 96 1022.0
20260902130551 60 0 0.0 0.0 0.00 0.02 0.02 95 1022.2
20260902130104 60 0 0.0 0.0 0.00 0.02 0.02 95 1022.3
20260902125551 60 0 0.0 0.0 0.00 0.02 0.02 95 1022.1
20260902125051 60 0 0.0 0.0 0.00 0.02 0.02 95 1022.2
20260902124600 60 0 0.0 0.0 0.00 0.02 0.02 95 1022.2
20260902124052 60 0 0.0 0.0 0.00 0.02 0.02 95 1022.1
20260902123551 60 0 0.0 0.0 0.00 0.02 0.02 95 1022.3
20260902123055 60 0 0.0 0.0 0.00 0.02 0.02 95 1022.3
20260902122550 60 0 0.0 0.0 0.00 0.02 0.02 95 1022.2
20260902122051 60 0 0.0 0.0 0.00 0.02 0.02 95 1022.2
20260902121600 60 0 0.0 0.0 0.00 0.02 0.02 95 1022.2
20260902121049 60 0 0.0 1.0 0.00 0.02 0.02 95 1022.3
20260902120551 60 0 0.0 1.0 0.00 0.02 0.02 95 1022.2
20260902115551 60 0 0.0 0.0 0.00 0.02 0.02 95 1022.1
20260902115048 60 0 0.0 0.0 0.00 0.02 0.02 95 1022.2
20260902114559 60 0 0.0 0.0 0.00 0.02 0.02 95 1022.2
20260902114050 60 0 0.0 0.0 0.00 0.02 0.02 95 1022.1
20260902113550 60 0 0.0 0.0 0.00 0.02 0.02 95 1022.2
20260902113058 60 0 0.0 0.0 0.00 0.02 0.02 95 1022.3
20260902112551 60 0 0.0 0.0 0.00 0.02 0.02 95 1022.2
20260902112051 60 0 0.0 0.0 0.00 0.02 0.02 95 1022.2
20260902111559 60 0 0.0 0.0 0.00 0.02 0.02 95 1022.0
20260902111048 60 0 0.0 0.0 0.00 0.02 0.02 95 1022.0
20260902110552 59 0 0.0 0.0 0.00 0.02 0.02 95 1022.0
20260902110104 59 0 0.0 0.0 0.00 0.02 0.02 95 1022.0
20260902105550 59 0 0.0 0.0 0.00 0.02 0.02 95 1021.9
20260902105051 59 0 0.0 0.0 0.00 0.02 0.02 95 1022.1
20260902104600 59 0 0.0 0.0 0.00 0.02 0.02 95 1022.0
20260902104052 59 0 0.0 0.0 0.00 0.02 0.02 95 1022.0
20260902103550 59 0 0.0 0.0 0.00 0.02 0.02 95 1022.1
20260902103100 59 0 0.0 0.0 0.00 0.02 0.02 95 1021.9
20260902102553 59 0 0.0 0.0 0.00 0.02 0.02 95 1021.9
20260902102051 59 0 0.0 0.0 0.00 0.02 0.02 94 1021.7
20260902101559 59 0 0.0 0.0 0.00 0.02 0.02 94 1021.7
20260902101051 59 0 0.0 0.0 0.00 0.02 0.02 94 1021.7
20260902100552 59 0 0.0 0.0 0.00 0.02 0.02 94 1021.7
20260902100110 59 0 0.0 0.0 0.01 0.02 0.02 94 1021.6
20260902095552 59 0 0.0 0.0 0.01 0.02 0.02 94 1021.4
20260902095050 59 0 0.0 0.0 0.01 0.02 0.02 94 1021.7
20260902094616 59 0 0.0 0.0 0.01 0.02 0.02 94 1021.7
20260902094051 59 0 0.0 0.0 0.01 0.02 0.02 94 1021.4
20260902093550 59 0 0.0 0.0 0.01 0.02 0.02 94 1021.5
20260902093105 59 0 0.0 0.0 0.01 0.02 0.02 94 1021.5
20260902092551 59 0 0.0 0.0 0.01 0.02 0.02 94 1021.6
20260902092053 60 0 0.0 0.0 0.01 0.02 0.02 94 1021.5
20260902091604 60 0 0.0 0.0 0.02 0.02 0.02 94 1021.4
20260902091050 60 0 0.0 0.0 0.02 0.02 0.02 94 1021.5
20260902090551 60 0 0.0 0.0 0.01 0.01 0.01 93 1021.4
20260902085551 60 0 0.0 0.0 0.01 0.01 0.01 93 1021.5
20260902085051 60 0 0.0 0.0 0.01 0.01 0.01 93 1021.5
20260902084556 60 0 0.0 0.0 0.01 0.01 0.01 93 1021.6
20260902084051 60 0 0.0 0.0 0.01 0.01 0.01 93 1021.5
20260902083551 60 0 0.0 0.0 0.01 0.01 0.01 93 1021.5
20260902083058 60 0 0.0 0.0 0.01 0.01 0.01 93 1021.8
20260902082551 60 0 0.0 0.0 0.01 0.01 0.01 93 1021.7
20260902082051 60 0 0.0 0.0 0.01 0.01 0.01 93 1021.5
20260902081601 60 0 0.0 0.0 0.00 0.00 0.00 92 1021.7
20260902081050 60 0 0.0 0.0 0.00 0.00 0.00 92 1021.7
20260902080552 60 0 0.0 0.0 0.00 0.00 0.00 92 1021.5
20260902080114 60 0 0.0 0.0 0.00 0.00 0.00 92 1021.6
20260902075554 60 0 0.0 0.0 0.00 0.00 0.00 92 1021.5
20260902075050 60 0 0.0 0.0 0.00 0.00 0.00 92 1021.6
20260902074557 61 0 0.0 0.0 0.00 0.00 0.00 92 1021.7
20260902074050 61 0 0.0 0.0 0.00 0.00 0.00 92 1021.7
20260902073551 61 0 0.0 0.0 0.00 0.00 0.00 92 1021.5
20260902073053 61 0 0.0 0.0 0.00 0.00 0.00 91 1021.6
20260902072551 61 0 0.0 0.0 0.00 0.00 0.00 91 1021.5
20260902072054 61 0 0.0 0.0 0.00 0.00 0.00 91 1021.5
20260902071556 61 0 0.0 0.0 0.00 0.00 0.00 91 1021.5
20260902071051 61 0 0.0 0.0 0.00 0.00 0.00 91 1021.5
20260902070551 61 0 0.0 0.0 0.00 0.00 0.00 91 1021.3
20260902070107 61 0 0.0 0.0 0.00 0.00 0.00 91 1021.3
20260902065551 61 0 0.0 0.0 0.00 0.00 0.00 91 1021.1
20260902065050 61 0 0.0 0.0 0.00 0.00 0.00 91 1021.1
20260902064609 62 0 0.0 0.0 0.00 0.00 0.00 91 1021.0
20260902064052 62 0 0.0 0.0 0.00 0.00 0.00 91 1021.0
20260902063550 62 0 0.0 0.0 0.00 0.00 0.00 91 1021.0
20260902063100 62 0 0.0 0.0 0.00 0.00 0.00 92 1021.1
20260902062553 62 0 0.0 0.0 0.00 0.00 0.00 92 1021.2
20260902062051 62 0 0.0 0.0 0.00 0.00 0.00 92 1020.9
20260902061054 62 0 0.0 0.0 0.00 0.00 0.00 91 1021.0
20260902060550 62 0 0.0 0.0 0.00 0.00 0.00 91 1020.9
20260902060120 62 0 0.0 0.0 0.00 0.00 0.00 91 1020.8
20260902055551 62 0 0.0 0.0 0.00 0.00 0.00 91 1020.7
20260902055051 62 0 0.0 0.0 0.00 0.00 0.00 91 1020.7
20260902054559 62 0 0.0 0.0 0.00 0.00 0.00 91 1020.7
20260902054051 62 0 0.0 0.0 0.00 0.00 0.00 91 1021.0
20260902053551 62 0 0.0 0.0 0.00 0.00 0.00 91 1020.8
20260902053122 62 0 0.0 0.0 0.00 0.00 0.00 91 1020.7
20260902052554 62 0 0.0 0.0 0.00 0.00 0.00 91 1020.6
20260902052050 62 0 0.0 0.0 0.00 0.00 0.00 91 1020.7
20260902051605 62 0 0.0 0.0 0.00 0.00 0.00 91 1020.4
20260902051051 62 0 0.0 0.0 0.00 0.00 0.00 91 1020.5
20260902050551 62 0 0.0 0.0 0.00 0.00 0.00 91 1020.5
20260902050104 62 0 0.0 0.0 0.00 0.00 0.00 91 1020.5
20260902045550 63 0 0.0 0.0 0.00 0.00 0.00 90 1020.5
20260902045053 63 0 0.0 0.0 0.00 0.00 0.00 90 1020.4
20260902044603 63 0 0.0 0.0 0.00 0.00 0.00 90 1020.5
20260902044051 63 0 0.0 0.0 0.00 0.00 0.00 90 1020.5
20260902043551 63 0 0.0 0.0 0.00 0.00 0.00 90 1020.3
20260902043101 63 0 0.0 0.0 0.00 0.00 0.00 90 1020.1
20260902042551 63 0 0.0 0.0 0.00 0.00 0.00 90 1020.1
20260902042050 63 0 0.0 0.0 0.00 0.00 0.00 90 1019.8
20260902041605 63 0 0.0 0.0 0.00 0.00 0.00 89 1019.8
20260902041051 63 0 0.0 0.0 0.00 0.00 0.00 89 1019.8
20260902040551 63 0 0.0 0.0 0.00 0.00 0.00 89 1019.8
20260902040105 63 0 0.0 0.0 0.00 0.00 0.00 89 1019.7
20260902035552 63 0 0.0 0.0 0.00 0.00 0.00 89 1019.8
20260902035050 63 0 0.0 0.0 0.00 0.00 0.00 89 1019.8
20260902034607 63 0 0.0 0.0 0.00 0.00 0.00 89 1019.9
20260902034052 63 0 0.0 0.0 0.00 0.00 0.00 89 1019.8
20260902033553 63 0 0.0 0.0 0.00 0.00 0.00 89 1019.7
20260902033110 63 0 0.0 0.0 0.00 0.00 0.00 89 1019.5
20260902032551 63 0 0.0 0.0 0.00 0.00 0.00 89 1019.7
20260902032050 64 0 0.0 0.0 0.00 0.00 0.00 89 1019.5
20260902031642 64 0 0.0 0.0 0.00 0.00 0.00 89 1019.5
20260902031051 64 0 0.0 0.0 0.00 0.00 0.00 89 1019.4
20260902030554 64 0 0.0 0.0 0.00 0.00 0.00 89 1019.5
20260902030100 64 0 0.0 0.0 0.00 0.00 0.00 88 1019.7
20260902025552 64 0 0.0 0.0 0.00 0.00 0.00 88 1019.4
20260902025052 64 0 0.0 0.0 0.00 0.00 0.00 88 1019.4
20260902024608 64 0 0.0 0.0 0.00 0.00 0.00 88 1019.3
20260902024051 64 0 0.0 0.0 0.00 0.00 0.00 89 1019.3
20260902023550 64 0 0.0 0.0 0.00 0.00 0.00 89 1019.4
20260902023102 64 0 0.0 1.0 0.00 0.00 0.00 89 1019.3
20260902022552 64 0 0.0 1.0 0.00 0.00 0.00 89 1019.2
20260902022052 64 0 0.0 0.0 0.00 0.00 0.00 89 1019.1
20260902021613 64 0 0.0 0.0 0.00 0.00 0.00 89 1019.2
20260902021049 65 0 0.0 0.0 0.00 0.00 0.00 89 1019.2
20260902020553 65 0 0.0 0.0 0.00 0.00 0.00 89 1019.2
20260902020055 65 0 0.0 0.0 0.00 0.00 0.00 89 1019.0
20260902015549 65 0 0.0 0.0 0.00 0.00 0.00 89 1019.0
20260902015049 65 0 0.0 0.0 0.00 0.00 0.00 88 1018.9
20260902014603 65 0 0.0 0.0 0.00 0.00 0.00 88 1019.0
20260902014057 65 0 0.0 0.0 0.00 0.00 0.00 88 1019.2
20260902013548 65 0 0.0 0.0 0.00 0.00 0.00 88 1019.2
20260902013104 65 0 0.0 0.0 0.00 0.00 0.00 88 1019.3
20260902012550 65 0 0.0 0.0 0.00 0.00 0.00 87 1019.4
20260902012050 65 0 0.0 0.0 0.00 0.00 0.00 87 1019.3
20260902011601 65 0 0.0 0.0 0.00 0.00 0.00 87 1019.1
20260902011051 65 0 0.0 0.0 0.00 0.00 0.00 87 1019.4
20260902010552 65 0 0.0 0.0 0.00 0.00 0.00 87 1019.2
20260902005551 66 0 0.0 0.0 0.00 0.00 0.00 86 1019.4
20260902005051 66 0 0.0 0.0 0.00 0.00 0.00 86 1019.5
20260902004558 66 0 0.0 0.0 0.00 0.00 0.00 86 1019.2
20260902004050 66 0 0.0 0.0 0.00 0.00 0.00 85 1019.2
20260902003550 66 0 0.0 0.0 0.00 0.00 0.00 85 1018.8
20260902003057 66 0 0.0 0.0 0.00 0.00 0.00 85 1018.8
20260902002551 66 0 0.0 0.0 0.00 0.00 0.00 84 1018.8
20260902002050 66 0 0.0 1.0 0.00 0.00 0.00 84 1018.7
20260902001600 67 0 0.0 2.0 0.00 0.00 0.00 84 1018.6
20260902001052 67 0 0.0 2.0 0.00 0.00 0.00 83 1018.7
20260902000551 67 0 0.0 2.0 0.00 0.00 0.00 83 1018.6
20260902000054 67 0 0.0 0.0 0.00 0.00 0.00 83 1018.4
20260901235551 67 0 0.0 0.0 0.00 0.00 0.00 83 1018.5
20260901235052 67 0 0.0 0.0 0.00 0.00 0.00 82 1018.4
20260901234559 67 0 0.0 0.0 0.00 0.00 0.00 82 1018.3
20260901234051 67 0 0.0 0.0 0.00 0.00 0.00 81 1018.2
20260901233553 67 0 0.0 0.0 0.00 0.00 0.00 81 1018.3
20260901233105 68 0 0.0 0.0 0.00 0.00 0.00 80 1018.3
20260901232551 68 0 0.0 0.0 0.00 0.00 0.00 80 1018.2
20260901232051 68 0 0.0 0.0 0.00 0.00 0.00 79 1018.1
20260901231601 68 0 0.0 0.0 0.00 0.00 0.00 79 1018.2
20260901231050 69 0 0.0 0.0 0.00 0.00 0.00 78 1017.9
20260901230550 69 0 0.0 0.0 0.00 0.00 0.00 77 1018.1
20260901230100 69 0 0.0 0.0 0.00 0.00 0.00 76 1017.9
20260901225550 69 0 0.0 0.0 0.00 0.00 0.00 76 1018.0
20260901225050 70 0 0.0 0.0 0.00 0.00 0.00 75 1018.0
20260901224600 70 0 0.0 0.0 0.00 0.00 0.00 73 1018.1
20260901224050 70 0 0.0 0.0 0.00 0.00 0.00 72 1018.0
20260901223547 71 0 0.0 0.0 0.00 0.00 0.00 71 1018.0
20260901223103 71 0 0.0 0.0 0.00 0.00 0.00 69 1018.1
20260901222550 71 0 0.0 0.0 0.00 0.00 0.00 70 1017.9
20260901222050 71 0 0.0 0.0 0.00 0.00 0.00 69 1018.0
20260901221557 71 0 0.0 1.0 0.00 0.00 0.00 64 1017.9
20260901221051 72 0 0.0 4.0 0.00 0.00 0.00 63 1018.0
20260901220548 72 0 0.0 4.0 0.00 0.00 0.00 61 1017.8
20260901220107 72 0 0.0 4.0 0.00 0.00 0.00 60 1017.9
20260901215549 72 0 0.0 2.0 0.00 0.00 0.00 61 1017.9
20260901215049 72 164 0.0 0.0 0.00 0.00 0.00 62 1017.7
20260901214559 72 0 0.0 1.0 0.00 0.00 0.00 63 1017.6
20260901214048 72 0 0.0 2.0 0.00 0.00 0.00 66 1017.8
20260901213553 72 0 0.0 2.0 0.00 0.00 0.00 65 1017.6
20260901213057 73 0 0.0 3.0 0.00 0.00 0.00 64 1017.5
20260901212550 73 0 0.0 3.0 0.00 0.00 0.00 62 1017.6
20260901212048 73 0 0.0 2.0 0.00 0.00 0.00 61 1017.6
20260901211554 73 0 0.0 1.0 0.00 0.00 0.00 61 1017.5
20260901211049 73 0 0.0 5.0 0.00 0.00 0.00 60 1017.5
20260901210548 73 0 0.0 5.0 0.00 0.00 0.00 59 1017.6
20260901205550 74 0 0.0 5.0 0.00 0.00 0.00 56 1017.5
20260901205049 74 0 0.0 6.0 0.00 0.00 0.00 56 1017.4
20260901204558 75 0 0.0 6.0 0.00 0.00 0.00 54 1017.3
20260901204050 75 0 0.0 6.0 0.00 0.00 0.00 55 1017.2
20260901203548 75 0 0.0 5.0 0.00 0.00 0.00 56 1017.3
20260901203103 75 0 0.0 4.0 0.00 0.00 0.00 56 1017.2
20260901202552 75 113 0.0 4.0 0.00 0.00 0.00 55 1017.2
20260901202056 75 0 0.0 8.0 0.00 0.00 0.00 55 1017.2
20260901201708 75 0 1.0 8.0 0.00 0.00 0.00 54 1017.1
20260901201052 75 160 0.0 7.0 0.00 0.00 0.00 54 1017.0
20260901200551 75 0 0.0 10.0 0.00 0.00 0.00 53 1017.1